sat.trackr.live / text

‹ back to catalog

STARLINK-11634 [DTC]

NORAD 63673 · 2025-085K

PAYLOAD ACTIVE UNKNOWN

§ Identity

Operator
Country
US
Launch date
2025-04-28
Launch site
AFETR
Launch vehicle
Mass (kg)
RCS (m²)

Purposes: comms

External: N2YO · Heavens-Above · Gunter

§ Orbital elements

Epoch: 2026-05-24T19:21:05.973696Z

Period
91.67 min
Inclination
43.0016°
Eccentricity
0.0000369
Mean motion
15.70870291 rev/d
Perigee alt
356.2 km
Apogee alt
356.7 km
Semi-major
6,734.5 km
B*
1.2140e-3
RAAN
179.5524°
Arg perigee
306.2187°
Mean anomaly
53.8646°
Rev number
6,221

§ Raw data

STARLINK-11634 [DTC]1 63673U 25085K   26144.80631914  .00158537  00000+0  12140-2 0  99922 63673  43.0016 179.5524 0000369 306.2187  53.8646 15.70870291 62212

JSON: /api/v1/satellites/63673 · /tle

For live sub-satellite position, see the globe view (requires WebGL).

§ Visibility from observer

Set your observer location to see the next 7 days of passes ≥ 10°. The values pass through the URL so the page stays shareable.

No JS? Fill the form by hand. The geolocation button needs JavaScript.